Погода в Высоцке

Россия / Санкт-Петербург и Ленинградская область     60°37′30″N   28°34′04″E
темп.,
°C
ветер,
м/с
пор.,
м/с
влажн.,
%
обл.,
%
осадки,
мм/ч
давл.,
гПа
погр.,
м
1 августа, вс
вс100:00+14юз25966 0.1 1000101
03:00+15юз38968 0.2 1001249
06:00+15юз3897100 0.3 1001342
09:00+16ююз4892100 2.3 1000485
12:00+18ю588852 1.1 1000730
15:00+22ююз69525 1.6 10001355
18:00+21ююз575748 0.0 9991129
21:00+17юз49810 0.0 1000481
2 августа, пн
пн200:00+15зюз410917 0.1 1001433
03:00+15юз41086100 0.1 1002531
06:00+15юз3984100 0.0 1003380
09:00+18юз5768100 0.1 10031094
12:00+20ююз4557100 0.1 10031274
15:00+20ююз4557100 0.1 10021115
18:00+20ююз3456100 0.0 1001838
21:00+17юз2578100 0.0 1001152
3 августа, вт
вт300:00+15з2682100 0.1 1000169
03:00+15зюз2777100 0.1 1000236
06:00+13з27900 0.3 1000217
09:00+18зюз46670 0.3 1000882
12:00+19з555929 0.0 10011304
15:00+15з5773100 0.1 1003907
18:00+16зсз586637 0.2 10051083
21:00+14з236294 0.2 100757
4 августа, ср
ср400:00+11зсз377111 0.0 1009140
03:00+9сз24736 0.0 101169
06:00+10ссз22703 0.0 101243
09:00+18сз12415 0.0 1014685
12:00+20ююз34324 0.0 10142274
15:00+20ююз54377 0.0 10151669
18:00+19ююз44412 0.0 10151070
21:00+14ююз24656 0.0 101693
5 августа, чт
чт500:00+11зюз11776 0.0 101618
03:00+11ююв117780 0.0 101623
06:00+13вюв236991 0.0 101681
09:00+18юв224847 0.0 1016503
12:00+21ю344374 0.1 10151500
15:00+22ю23395 0.1 10151452
18:00+22ю23387 0.0 10141235
21:00+16всв24675 0.0 101482